East Taunton, MA

5:49 AM EDT on September 26, 2016 (GMT -0400)
Taunton Municipal

Weather History for KTAN - October, 2013

Change the Weather History Date:

Friday, October 4, 2013

  Actual Average Record
Temperature  
Mean Temperature 54 °F -  
Max Temperature 66 °F 67 °F 86 °F (2007)
Min Temperature 43 °F 43 °F 28 °F (1974)
Degree Days  
Heating Degree Days 10    
Growing Degree Days 4 (Base 50)    
Moisture  
Dew Point 51 °F    
Average Humidity 92    
Maximum Humidity 100    
Minimum Humidity 65    
Precipitation  
Precipitation 0.36 in - - ()
Sea Level Pressure  
Sea Level Pressure 30.06 in    
Wind  
Wind Speed 1 mph (NNE)    
Max Wind Speed 9 mph    
Max Gust Speed -    
Visibility 4 miles    
Events Fog , Rain    
Averages and records for this station are not official NWS values.
T = Trace of Precipitation, MM = Missing Value Source: NWS Daily Summary

Daily Weather History Graph

Daily Weather History Graph

Search for Another Location

Airport or City:

Trip Planner

Search our weather history database for the weather conditions in past years. The results will help you decide how hot, cold, wet, or windy it might be!

Date:

Astronomy

Oct. 04, 2013 Rise Set
Actual Time 6:44 AM EDT 6:20 PM EDT
Civil Twilight 6:16 AM EDT 6:48 PM EDT
Nautical Twilight 5:44 AM EDT 7:20 PM EDT
Astronomical Twilight 5:11 AM EDT 7:52 PM EDT
Moon 6:16 AM EDT (10/4) 6:00 PM EDT (10/4)
Length of Visible Light 12h 31m
Length of Day
11h 35m
Waning Crescent, 0% of the Moon is Illuminated
Oct 4
Waning Crescent
Oct 4
New
Oct 11
First Quarter
Oct 18
Full
Oct 26
Last Quarter

Hourly Weather History & Observations

Time (EDT) Temp. Dew Point Humidity Pressure Visibility Wind Dir Wind Speed Gust Speed Precip Events Conditions
12:26 AM 46.0 °F 44.1 °F 93% 30.06 in 6.0 mi Calm Calm - N/A   Clear
12:52 AM 46.9 °F 45.0 °F 93% 30.06 in 8.0 mi Calm Calm - N/A   Clear
1:40 AM 46.0 °F 44.1 °F 93% 30.06 in 1.5 mi Calm Calm - N/A   Clear
1:48 AM 46.4 °F 44.6 °F 93% 30.06 in 1.0 mi Calm Calm - N/A   Clear
1:52 AM 46.0 °F 44.1 °F 93% 30.06 in 0.8 mi Calm Calm - N/A   Clear
2:25 AM 45.0 °F 44.1 °F 97% 30.06 in 0.8 mi Calm Calm - N/A   Clear
2:44 AM 45.0 °F 44.1 °F 97% 30.06 in 1.2 mi Calm Calm - N/A   Clear
2:50 AM 44.6 °F 44.6 °F 100% 30.05 in 2.5 mi Calm Calm - N/A   Clear
2:52 AM 45.0 °F 43.0 °F 93% 30.05 in 4.0 mi Calm Calm - N/A   Clear
3:08 AM 45.0 °F 44.1 °F 97% 30.05 in 1.8 mi Calm Calm - N/A   Clear
3:17 AM 45.0 °F 43.0 °F 93% 30.05 in 1.0 mi Calm Calm - N/A   Clear
3:32 AM 46.0 °F 44.1 °F 93% 30.04 in 0.8 mi Calm Calm - N/A   Clear
3:52 AM 44.1 °F 43.0 °F 96% 30.04 in 1.2 mi Calm Calm - N/A   Clear
4:02 AM 44.1 °F 43.0 °F 96% 30.04 in 2.0 mi Calm Calm - N/A   Clear
4:09 AM 44.1 °F 43.0 °F 96% 30.04 in 7.0 mi Calm Calm - N/A   Clear
4:21 AM 44.1 °F 42.1 °F 93% 30.04 in 1.8 mi Calm Calm - N/A   Clear
4:32 AM 45.0 °F 43.0 °F 93% 30.05 in 1.0 mi Calm Calm - N/A   Clear
4:41 AM 43.0 °F 42.1 °F 97% 30.05 in 2.0 mi Calm Calm - N/A   Clear
4:50 AM 44.6 °F 42.8 °F 93% 30.05 in 5.0 mi Calm Calm - N/A   Clear
4:52 AM 44.1 °F 42.1 °F 93% 30.05 in 6.0 mi Calm Calm - N/A   Clear
5:39 AM 44.1 °F 42.1 °F 93% 30.05 in 1.8 mi Calm Calm - N/A   Clear
5:47 AM 44.6 °F 42.8 °F 93% 30.05 in 2.5 mi Calm Calm - N/A   Clear
5:52 AM 44.1 °F 42.1 °F 93% 30.06 in 3.0 mi Calm Calm - N/A   Clear
6:52 AM 45.0 °F 43.0 °F 93% 30.06 in 8.0 mi Calm Calm - N/A   Clear
7:52 AM 52.0 °F 50.0 °F 93% 30.07 in 10.0 mi Calm Calm - N/A   Scattered Clouds
8:52 AM 57.0 °F 54.0 °F 89% 30.08 in 10.0 mi Calm Calm - N/A   Overcast
9:52 AM 62.1 °F 55.9 °F 80% 30.07 in 10.0 mi Calm Calm - N/A   Overcast
10:52 AM 66.0 °F 54.0 °F 65% 30.06 in 10.0 mi Calm Calm - N/A   Overcast
11:52 AM 64.0 °F 54.0 °F 70% 30.09 in 10.0 mi NW 9.2 mph - 0.00 in Rain Light Rain
12:10 PM 60.1 °F 57.0 °F 90% 30.08 in 2.5 mi NNW 4.6 mph - 0.06 in Rain Heavy Rain
12:16 PM 59.0 °F 57.0 °F 93% 30.08 in 1.2 mi NNE 3.5 mph - 0.13 in Rain Heavy Rain
12:25 PM 59.0 °F 57.0 °F 93% 30.08 in 2.5 mi Calm Calm - 0.16 in Rain Rain
12:45 PM 57.9 °F 55.0 °F 90% 30.07 in 7.0 mi Variable 3.5 mph - 0.19 in Rain Light Rain
12:52 PM 59.0 °F 55.9 °F 90% 30.07 in 9.0 mi Calm Calm - 0.20 in Rain Light Rain
1:34 PM 59.0 °F 55.9 °F 90% 30.06 in 2.5 mi Variable 3.5 mph - 0.06 in Rain Rain
1:41 PM 59.0 °F 55.9 °F 90% 30.05 in 3.0 mi ENE 3.5 mph - 0.07 in Rain Rain
1:52 PM 59.0 °F 55.9 °F 90% 30.06 in 6.0 mi North 4.6 mph - 0.08 in Rain Light Rain
2:23 PM 57.9 °F 55.9 °F 93% 30.06 in 2.5 mi Calm Calm - 0.04 in Rain Light Rain
2:25 PM 57.9 °F 55.9 °F 93% 30.06 in 4.0 mi Calm Calm - 0.04 in Rain Light Rain
2:42 PM 59.0 °F 55.9 °F 90% 30.05 in 9.0 mi NE 3.5 mph - 0.04 in Rain Light Rain
2:52 PM 59.0 °F 55.9 °F 90% 30.05 in 10.0 mi Variable 3.5 mph - 0.04 in   Overcast
3:08 PM 57.9 °F 55.9 °F 93% 30.04 in 2.5 mi NE 3.5 mph - 0.04 in Rain Light Rain
3:16 PM 57.9 °F 55.9 °F 93% 30.03 in 6.0 mi Calm Calm - 0.04 in Rain Light Rain
3:29 PM 59.0 °F 55.9 °F 90% 30.03 in 10.0 mi Variable 3.5 mph - 0.04 in   Overcast
3:42 PM 60.1 °F 57.0 °F 90% 30.03 in 10.0 mi Calm Calm - 0.04 in   Overcast
3:52 PM 60.1 °F 57.0 °F 90% 30.04 in 10.0 mi East 3.5 mph - 0.04 in   Mostly Cloudy
4:12 PM 60.1 °F 57.0 °F 90% 30.04 in 10.0 mi Calm Calm - N/A   Mostly Cloudy
4:52 PM 60.1 °F 57.0 °F 90% 30.04 in 10.0 mi North 3.5 mph - N/A   Mostly Cloudy
5:08 PM 60.1 °F 55.9 °F 86% 30.04 in 10.0 mi Calm Calm - N/A   Mostly Cloudy
5:52 PM 60.1 °F 57.0 °F 90% 30.05 in 10.0 mi Calm Calm - N/A   Overcast
6:52 PM 60.1 °F 57.9 °F 93% 30.05 in 10.0 mi Calm Calm - N/A   Overcast
7:52 PM 59.0 °F 57.9 °F 96% 30.06 in 7.0 mi Calm Calm - N/A   Overcast
8:52 PM 57.9 °F 55.9 °F 93% 30.06 in 1.8 mi Calm Calm - N/A   Scattered Clouds
8:58 PM 57.0 °F 55.9 °F 96% 30.06 in 0.8 mi Calm Calm - N/A   Scattered Clouds
9:20 PM 57.0 °F 55.0 °F 93% 30.06 in 0.8 mi Calm Calm - N/A   Mist
9:27 PM 57.0 °F 55.0 °F 93% 30.06 in 0.8 mi Calm Calm - N/A   Mist
9:30 PM 57.0 °F 55.0 °F 93% 30.06 in 1.0 mi Calm Calm - N/A   Mist
9:33 PM 55.9 °F 55.0 °F 97% 30.06 in 1.5 mi Calm Calm - N/A   Scattered Clouds
9:35 PM 55.9 °F 54.0 °F 93% 30.06 in 1.2 mi Calm Calm - N/A   Scattered Clouds
9:39 PM 55.9 °F 54.0 °F 93% 30.06 in 0.8 mi Calm Calm - N/A   Mist
9:52 PM 55.0 °F 54.0 °F 96% 30.06 in 0.5 mi Calm Calm - N/A Fog Fog
10:08 PM 55.0 °F 53.1 °F 93% 30.07 in 0.8 mi Calm Calm - N/A   Overcast
10:18 PM 55.0 °F 54.0 °F 96% 30.07 in 0.5 mi Calm Calm - N/A Fog Fog
10:52 PM 54.0 °F 53.1 °F 97% 30.07 in 0.5 mi Calm Calm - N/A Fog Fog
11:01 PM 55.0 °F 53.1 °F 93% 30.07 in 0.8 mi Calm Calm - N/A   Overcast
11:24 PM 55.0 °F 54.0 °F 96% 30.07 in 1.0 mi Calm Calm - N/A   Overcast
11:30 PM 55.9 °F 54.0 °F 93% 30.06 in 2.0 mi Calm Calm - N/A   Overcast
11:38 PM 57.0 °F 55.0 °F 93% 30.06 in 7.0 mi Calm Calm - N/A   Overcast
11:52 PM 57.0 °F 55.9 °F 96% 30.06 in 6.0 mi Calm Calm - N/A   Overcast